EW9582 Weather Reports


time (UTC)temp
C
wind
direction
speed
KPH
gust
KPH
rain 1hr
cm
rain 24hr
cm
rain mn
cm
humidity
%
barometer
mb
20260507163049 26 122 8.0 12.9 0.00 0.00 0.00 73 1014.0
20260507161544 26 143 4.8 8.0 0.00 0.00 0.00 71 1014.0
20260507160048 26 120 0.0 4.8 0.00 0.00 0.00 68 1014.0
20260507154539 26 312 0.0 3.2 0.00 0.00 0.00 69 1014.2
20260507153043 26 15 0.0 4.8 0.00 0.00 0.00 71 1014.0
20260507151535 25 309 4.8 11.3 0.00 0.00 0.00 71 1014.0
20260507150033 25 296 6.4 12.9 0.00 0.00 0.00 73 1013.8
20260507144534 24 304 12.9 16.1 0.00 0.00 0.00 75 1013.5
20260507143027 24 312 9.7 16.1 0.00 0.00 0.00 76 1013.6
20260507141526 23 313 8.0 11.3 0.00 0.00 0.00 78 1013.5
20260507140024 23 316 6.4 9.7 0.00 0.00 0.00 80 1013.3
20260507134524 22 335 4.8 8.0 0.00 0.00 0.00 81 1013.2
20260507133022 22 319 4.8 6.4 0.00 0.00 0.00 81 1013.1
20260507131522 22 327 0.0 4.8 0.00 0.00 0.00 81 1012.8
20260507130026 22 295 1.6 4.8 0.00 0.00 0.00 80 1012.6
20260507124531 24 305 0.0 8.0 0.00 0.00 0.00 80 1012.3
20260507123018 24 128 6.4 12.9 0.00 0.00 0.00 85 1012.4
20260507121515 23 138 0.0 3.2 0.00 0.00 0.00 83 1012.4
20260507120013 23 14 0.0 3.2 0.00 0.00 0.00 82 1012.1
20260507114510 23 49 0.0 1.6 0.00 0.00 0.00 81 1012.0
20260507111642 23 302 0.0 1.6 0.00 0.00 0.00 79 1012.0
20260507104521 23 333 1.6 4.8 0.00 0.00 0.00 81 1011.7
20260507103020 23 322 1.6 6.4 0.00 0.00 0.00 81 1011.6
20260507101520 23 304 4.8 4.8 0.00 0.00 0.00 82 1011.5
20260507100024 23 339 0.0 4.8 0.00 0.00 0.00 82 1011.6
20260507094519 22 320 3.2 6.4 0.00 0.00 0.00 82 1011.4
20260507093024 22 303 1.6 6.4 0.00 0.00 0.00 82 1011.6
20260507091523 22 319 3.2 6.4 0.00 0.00 0.00 82 1011.8
20260507090014 22 312 1.6 3.2 0.00 0.00 0.00 81 1012.1
20260507084519 22 286 3.2 8.0 0.00 0.00 0.00 82 1012.2
20260507083013 22 283 3.2 4.8 0.00 0.00 0.00 83 1012.0
20260507081511 22 301 1.6 4.8 0.00 0.00 0.00 83 1012.1
20260507080007 22 299 0.0 3.2 0.00 0.00 0.00 83 1012.5
20260507074508 22 309 0.0 1.6 0.00 0.00 0.00 83 1012.5
20260507073005 22 309 0.0 0.0 0.00 0.00 0.00 83 1012.6
20260507071504 23 309 0.0 0.0 0.00 0.00 0.00 82 1012.8
20260507070116 23 292 0.0 3.2 0.00 0.00 0.00 82 1013.0
20260507064612 23 279 0.0 1.6 0.00 0.00 0.00 82 1013.1
20260507063101 23 287 0.0 3.2 0.00 0.00 0.00 81 1013.2
20260507061555 23 310 0.0 3.2 0.00 0.00 0.00 80 1013.2
20260507060053 23 278 1.6 4.8 0.00 0.00 0.00 81 1013.4
20260507054555 23 286 1.6 3.2 0.00 0.00 0.00 80 1013.3
20260507053050 24 283 0.0 3.2 0.00 0.00 0.00 80 1013.6
20260507051549 25 318 0.0 3.2 0.00 0.00 0.00 79 1013.4
20260507050046 25 254 0.0 3.2 0.00 0.00 0.00 79 1013.6
20260507044546 25 243 0.0 3.2 0.00 0.00 0.00 79 1013.5
20260507043044 25 236 0.0 3.2 0.00 0.00 0.00 78 1013.5
20260507041545 25 250 0.0 0.0 0.00 0.00 0.00 78 1013.4
20260507040042 25 269 0.0 3.2 0.00 0.00 0.00 78 1013.4
20260507034542 25 240 0.0 3.2 0.00 0.00 0.00 78 1013.5
20260507033042 25 226 0.0 3.2 0.00 0.00 0.00 77 1013.4
20260507031539 25 219 1.6 6.4 0.00 0.00 0.00 77 1013.3
20260507030042 25 221 0.0 4.8 0.00 0.00 0.00 77 1013.2
20260507024538 26 221 1.6 4.8 0.00 0.00 0.00 77 1013.2
20260507023037 26 257 0.0 6.4 0.00 0.00 0.00 76 1012.9
20260507021538 26 218 1.6 8.0 0.00 0.00 0.00 76 1012.9
20260507020042 26 217 3.2 6.4 0.00 0.00 0.00 76 1012.9
20260507014533 26 196 3.2 6.4 0.00 0.00 0.00 75 1012.9
20260507013045 26 145 1.6 6.4 0.00 0.00 0.00 74 1012.9
20260507011533 27 210 1.6 8.0 0.00 0.00 0.00 74 1012.9
20260507010036 27 229 1.6 6.4 0.00 0.00 0.00 73 1012.7
20260507004530 27 188 1.6 9.7 0.00 0.00 0.00 74 1012.8
20260507003029 27 127 8.0 12.9 0.00 0.00 0.00 72 1012.7
20260507001531 27 158 6.4 11.3 0.00 0.00 0.00 71 1012.8
20260507000028 27 123 8.0 12.9 0.00 0.00 0.00 73 1012.7
20260506234534 27 96 6.4 14.5 0.00 0.00 0.00 74 1012.6
20260506233042 27 82 8.0 16.1 0.00 0.00 0.00 73 1012.6
20260506231528 27 115 11.3 17.7 0.00 0.00 0.00 73 1012.7
20260506230026 27 84 11.3 17.7 0.00 0.00 0.00 73 1012.7
20260506224523 27 104 14.5 22.5 0.00 0.00 0.00 72 1012.7
20260506223021 27 125 12.9 19.3 0.00 0.00 0.00 73 1012.7
20260506221520 27 79 12.9 22.5 0.00 0.00 0.00 72 1012.8
20260506220027 27 132 14.5 20.9 0.00 0.00 0.00 72 1013.0
20260506214518 27 75 14.5 24.1 0.00 0.00 0.00 72 1013.1
20260506213017 27 78 16.1 25.7 0.00 0.00 0.00 72 1013.0
20260506211522 28 102 14.5 22.5 0.00 0.00 0.00 70 1013.3
20260506210025 28 94 16.1 25.7 0.00 0.00 0.00 71 1013.3
20260506204513 28 104 16.1 22.5 0.00 0.00 0.00 68 1013.5
20260506203011 28 87 12.9 20.9 0.00 0.00 0.00 69 1013.6
20260506201510 28 121 12.9 20.9 0.00 0.00 0.00 70 1013.8
20260506200018 28 84 14.5 22.5 0.00 0.00 0.00 71 1013.9
20260506194507 28 103 14.5 22.5 0.00 0.00 0.00 70 1014.0
20260506193007 28 113 14.5 24.1 0.00 0.00 0.00 71 1014.0
20260506191505 28 97 17.7 24.1 0.00 0.00 0.00 70 1014.2
20260506190003 28 109 12.9 22.5 0.00 0.00 0.00 72 1014.3
20260506184501 28 109 16.1 24.1 0.00 0.00 0.00 71 1014.4
20260506183001 28 86 16.1 24.1 0.00 0.00 0.00 72 1014.4
20260506181559 28 105 14.5 22.5 0.00 0.00 0.00 72 1014.5
20260506180059 28 103 17.7 25.7 0.00 0.00 0.00 72 1014.3
20260506174557 28 92 16.1 24.1 0.00 0.00 0.00 70 1014.4
20260506173108 28 94 14.5 24.1 0.00 0.00 0.00 71 1014.4
20260506171557 28 81 12.9 25.7 0.00 0.00 0.00 73 1014.6
20260506170059 28 93 14.5 22.5 0.00 0.00 0.00 71 1014.5
20260506164609 28 85 12.9 22.5 0.00 0.00 0.00 71 1014.5